Simultaneous Nadir Overpasses (SNOs) Predictions

Prediction of SNOs between AQUA and METOP-B Satellite Orbit:

Table of predicted SNOs for the next 14.0 days since TLE Epoch: 10/2/2021
Index Date (AQUA) Time (AQUA) Lat,Lon (AQUA) SZA (AQUA ) Date (METOP-B) Time (METOP-B) Lat,Lon (METOP-B) SZA (METOP-B ) Distance(km) Time Diff (sec)
1 10/02/2021 04:04:49 73.71, 113.26 77.28 10/02/2021 04:03:53 73.71, 113.17 77.29 2.86 56
2 10/02/2021 04:54:17 -73.82, -79.34 102.60 10/02/2021 04:54:33 -73.81, -79.27 102.60 2.51 16
3 10/02/2021 05:43:55 74.37, 87.01 78.00 10/02/2021 05:45:02 74.33, 89.35 77.92 70.40 67
4 10/04/2021 23:39:05 73.74, 179.62 78.40 10/04/2021 23:38:14 73.76, 179.69 78.42 2.73 51
5 10/05/2021 00:28:32 -73.80, -12.86 101.53 10/05/2021 00:28:55 -73.81, -12.85 101.52 1.89 23
6 10/07/2021 19:13:20 73.74,-113.93 79.47 10/07/2021 19:12:36 73.75,-113.92 79.49 1.66 44
7 10/07/2021 20:02:47 -73.79, 53.59 100.46 10/07/2021 20:03:17 -73.81, 53.56 100.44 2.67 30
8 10/10/2021 14:47:35 73.74, -47.51 80.55 10/10/2021 14:46:58 73.74, -47.53 80.55 0.68 37
9 10/10/2021 15:37:02 -73.80, 120.02 99.39 10/10/2021 15:37:39 -73.81, 119.96 99.38 2.19 37
10 10/13/2021 10:21:49 73.77, 18.89 81.62 10/13/2021 10:21:18 73.78, 18.98 81.64 3.15 31
11 10/13/2021 11:11:16 -73.82,-173.59 98.31 10/13/2021 11:12:00 -73.80,-173.65 98.33 2.87 44



Historial Predications of SNOs between AQUA and METOP-B
